User: anonymous   Login
Location: Unspecified
(0.0000°N, 0.0000°E)
Time: 02:13:28
(UTC+00:00)
Language:

STARLINK-11236 [DTC] - Orbit

View from above orbital plane
View from above orbital plane
View from above satellite
View from above satellite

Ground track
Ground track

The orbit is defined by the following mean orbital elements,

1 61062U          26145.12957231 +.00000000 +00000-0 +12159-4 0 00008
2 61062  53.1597 294.5149 0001035  82.8199 277.2937 15.69710804    05
Epoch (UTC): 25 May 2026 03:06:35
Eccentricity: 0.0001035
inclination: 53.1597°
perigee height: 359 km
apogee height: 360 km
right ascension of ascending node: 294.5149°
argument of perigee: 82.8199°
revolutions per day: 15.69710804
mean anomaly at epoch: 277.2937°

The dashed part of the orbit path shows where the satellite is in the earth's shadow,  

DLR